Location: Bella Vista
(32.5269°N, 116.7112°W)
Time: 13:14:00
(UTC+00:00)

Daily predictions for brighter satellites

Satellite Brightness Start Highest point End
(mag) Time Altitude Azimuth Time Altitude Azimuth Time Altitude Azimuth
APEX 4.0 12:00:05 10° NNW 12:04:47 66° WSW 12:10:38 10° S
Cosmos 2227 Rocket 3.0 12:00:47 10° NW 12:05:32 29° WSW 12:10:17 10° SSW
Meteor 2-10 Rocket 3.7 12:01:30 10° N 12:07:16 83° W 12:12:47 10° S
Cosmos 676 Rocket 4.2 12:03:23 10° NNW 12:08:39 82° ENE 12:13:56 10° SSE
Cosmos 1484 Rocket 2.9 12:04:58 10° NNE 12:08:57 80° ESE 12:12:49 10° S
Cosmos 2297 Rocket 3.5 12:05:14 10° NW 12:09:08 19° W 12:13:02 10° SW
SL-24 R/B 3.6 12:09:01 10° S 12:12:38 79° WSW 12:16:24 10° NNW
Cosmos 1300 4.0 12:09:54 10° NW 12:12:47 21° W 12:15:40 10° SW
Cosmos 407 Rocket 4.1 12:09:33 10° NW 12:14:22 35° W 12:19:09 10° SSW
CZ-2C R/B 4.0 12:11:28 10° NNW 12:14:52 27° WNW 12:18:17 10° SW
Cosmos 2082 3.9 12:11:41 10° NNW 12:17:08 48° WSW 12:22:35 10° S
SL-16 R/B 2.4 12:13:36 10° SSW 12:19:15 80° ESE 12:24:56 10° NNE
CZ-2C R/B 3.4 12:16:24 10° N 12:20:51 31° WNW 12:25:19 10° SW
Okean 1-7 Rocket 3.7 12:17:49 10° S 12:22:19 88° W 12:26:53 10° N
Atlas Centaur 2 3.8 12:19:48 10° SSW 12:24:36 23° SSE 12:28:39 10° ESE
Cosmos 1452 Rocket 3.8 12:21:32 10° SSW 12:26:38 51° WNW 12:31:47 10° N
Lacrosse 4 Rocket 3.7 12:25:51 10° WNW 12:27:34 12° NW 12:29:18 10° NNW
Aureole 2 Rocket 2.9 12:25:57 10° N 12:28:34 48° ENE 12:31:11 10° SSE
CZ-4C R/B 3.7 12:25:59 10° SSE 12:29:12 56° ENE 12:32:21 10° N
NOSS 3-2 (A) 3.3 12:23:56 10° SSW 12:29:17 86° ESE 12:35:17 10° NNE
Tsikada Rocket 4.1 12:23:31 10° S 12:29:56 80° W 12:36:22 10° N
